When you browse on this site, cookies collect data to enhance your experience and personalize the content and advertising you see.
Visit our Privacy Policy to learn more. By continuing to use the site, you agree to this use of cookies and data.
  • In Latvia
  • List of Countries
  • For 7 days
  • Water Temperature
  • Weather Map
  • Weather Widgets
  • user-avatar
    Login

    Hourly Weather Szentendre

    Today, 19 September, Thursday

    Time Temperature Precipitation Wind Pressure Humidity
    00:00 +11°C° 0 mm 1 mps 754 mmHg 53%
    01:00 +9°C° 0 mm 2 mps 754 mmHg 54%
    02:00 +9°C° 0 mm 2 mps 754 mmHg 56%
    03:00 +9°C° 0 mm 2 mps 754 mmHg 58%
    04:00 +8°C° 0 mm 2 mps 754 mmHg 61%
    05:00 +9°C° 0 mm 2 mps 754 mmHg 60%
    06:00 +9°C° 0 mm 2 mps 754 mmHg 60%
    07:00 +10°C° 0 mm 2 mps 754 mmHg 59%
    08:00 +13°C° 0 mm 2 mps 754 mmHg 53%
    09:00 +14°C° 0 mm 3 mps 755 mmHg 47%
    10:00 +15°C° 0 mm 4 mps 755 mmHg 41%
    11:00 +17°C° 0 mm 4 mps 754 mmHg 38%
    12:00 +18°C° 0 mm 4 mps 754 mmHg 35%
    13:00 +17°C° 0 mm 5 mps 754 mmHg 32%
    14:00 +17°C° 0 mm 5 mps 754 mmHg 33%
    15:00 +17°C° 0 mm 5 mps 754 mmHg 34%
    16:00 +16°C° 0 mm 5 mps 754 mmHg 34%
    17:00 +15°C° 0 mm 4 mps 754 mmHg 39%
    18:00 +13°C° 0 mm 4 mps 754 mmHg 44%
    19:00 +12°C° 0 mm 3 mps 755 mmHg 49%
    20:00 +11°C° 0 mm 3 mps 755 mmHg 52%
    21:00 +11°C° 0 mm 3 mps 755 mmHg 55%
    22:00 +10°C° 0 mm 3 mps 755 mmHg 58%
    23:00 +9°C° 0 mm 3 mps 755 mmHg 61%

    Tomorrow, 20 September, Friday

    Time Temperature Precipitation Wind Pressure Humidity
    00:00 +9°C° 0 mm 3 mps 755 mmHg 64%
    01:00 +8°C° 0 mm 2 mps 756 mmHg 67%
    02:00 +8°C° 0 mm 2 mps 755 mmHg 70%
    03:00 +7°C° 0 mm 2 mps 755 mmHg 72%
    04:00 +7°C° 0 mm 2 mps 755 mmHg 75%
    05:00 +7°C° 0 mm 2 mps 756 mmHg 73%
    06:00 +8°C° 0 mm 2 mps 756 mmHg 71%
    07:00 +9°C° 0 mm 2 mps 756 mmHg 68%
    08:00 +12°C° 0 mm 2 mps 756 mmHg 59%
    09:00 +14°C° 0 mm 2 mps 757 mmHg 50%
    10:00 +16°C° 0 mm 2 mps 757 mmHg 41%
    11:00 +17°C° 0 mm 2 mps 757 mmHg 36%
    12:00 +18°C° 0 mm 2 mps 756 mmHg 31%
    13:00 +19°C° 0 mm 2 mps 756 mmHg 26%
    14:00 +19°C° 0 mm 2 mps 756 mmHg 27%
    15:00 +19°C° 0 mm 2 mps 755 mmHg 27%
    16:00 +18°C° 0 mm 2 mps 755 mmHg 28%
    17:00 +17°C° 0 mm 2 mps 755 mmHg 33%
    18:00 +15°C° 0 mm 2 mps 755 mmHg 39%
    19:00 +13°C° 0 mm 1 mps 756 mmHg 44%
    20:00 +13°C° 0 mm 1 mps 756 mmHg 46%
    21:00 +12°C° 0 mm 1 mps 756 mmHg 48%
    22:00 +11°C° 0 mm 1 mps 756 mmHg 50%
    23:00 +11°C° 0 mm 1 mps 756 mmHg 52%

    Day after tomorrow, 21 September, Saturday

    Time Temperature Precipitation Wind Pressure Humidity
    00:00 +10°C° 0 mm 1 mps 756 mmHg 53%
    01:00 +10°C° 0 mm 1 mps 756 mmHg 55%
    02:00 +10°C° 0 mm 1 mps 756 mmHg 57%
    03:00 +9°C° 0 mm 1 mps 756 mmHg 58%
    04:00 +9°C° 0 mm 1 mps 756 mmHg 60%
    05:00 +9°C° 0 mm 1 mps 756 mmHg 58%
    06:00 +10°C° 0 mm 1 mps 756 mmHg 57%
    07:00 +10°C° 0 mm 1 mps 756 mmHg 55%
    08:00 +13°C° 0 mm 1 mps 756 mmHg 49%
    09:00 +15°C° 0 mm 1 mps 756 mmHg 43%
    10:00 +17°C° 0 mm 2 mps 756 mmHg 37%
    11:00 +18°C° 0 mm 2 mps 756 mmHg 34%
    12:00 +19°C° 0 mm 2 mps 756 mmHg 32%
    13:00 +20°C° 0 mm 2 mps 755 mmHg 29%
    14:00 +21°C° 0 mm 1 mps 755 mmHg 29%
    15:00 +21°C° 0 mm 1 mps 754 mmHg 29%
    16:00 +21°C° 0 mm 1 mps 754 mmHg 29%
    17:00 +19°C° 0 mm 1 mps 754 mmHg 32%
    18:00 +18°C° 0 mm 1 mps 753 mmHg 36%
    19:00 +15°C° 0 mm 1 mps 753 mmHg 39%
    20:00 +14°C° 0 mm 1 mps 753 mmHg 41%
    21:00 +14°C° 0 mm 1 mps 753 mmHg 42%
    22:00 +13°C° 0 mm 1 mps 753 mmHg 44%
    23:00 +13°C° 0 mm 1 mps 753 mmHg 45%

    22 September, Sunday

    Time Temperature Precipitation Wind Pressure Humidity
    00:00 +12°C° 0 mm 1 mps 753 mmHg 46%
    01:00 +12°C° 0 mm 1 mps 753 mmHg 47%
    02:00 +11°C° 0 mm 1 mps 753 mmHg 48%
    03:00 +11°C° 0 mm 1 mps 752 mmHg 50%
    04:00 +11°C° 0 mm 1 mps 752 mmHg 51%
    05:00 +10°C° 0 mm 2 mps 752 mmHg 50%
    06:00 +12°C° 0 mm 2 mps 752 mmHg 49%
    07:00 +12°C° 0 mm 2 mps 752 mmHg 48%
    08:00 +14°C° 0 mm 2 mps 752 mmHg 43%
    09:00 +17°C° 0 mm 3 mps 752 mmHg 37%
    10:00 +19°C° 0 mm 4 mps 752 mmHg 32%
    11:00 +20°C° 0 mm 4 mps 751 mmHg 30%
    12:00 +21°C° 0 mm 4 mps 751 mmHg 28%
    13:00 +22°C° 0 mm 4 mps 750 mmHg 25%
    14:00 +22°C° 0 mm 4 mps 750 mmHg 26%
    15:00 +23°C° 0 mm 4 mps 749 mmHg 26%
    16:00 +23°C° 0 mm 4 mps 749 mmHg 26%
    17:00 +21°C° 0 mm 4 mps 749 mmHg 28%
    18:00 +20°C° 0 mm 3 mps 749 mmHg 31%
    19:00 +18°C° 0 mm 3 mps 748 mmHg 33%
    20:00 +18°C° 0 mm 3 mps 748 mmHg 33%
    21:00 +18°C° 0 mm 3 mps 748 mmHg 34%
    22:00 +18°C° 0 mm 3 mps 748 mmHg 34%
    23:00 +18°C° 0 mm 3 mps 748 mmHg 35%

    23 September, Monday

    Time Temperature Precipitation Wind Pressure Humidity
    00:00 +18°C° 0 mm 3 mps 748 mmHg 36%
    01:00 +17°C° 0 mm 3 mps 747 mmHg 37%
    02:00 +17°C° 0 mm 3 mps 747 mmHg 38%
    03:00 +17°C° 0 mm 3 mps 747 mmHg 39%
    04:00 +17°C° 0 mm 3 mps 747 mmHg 40%
    05:00 +17°C° 0 mm 3 mps 747 mmHg 42%
    06:00 +17°C° 0 mm 3 mps 747 mmHg 43%
    07:00 +17°C° 0 mm 4 mps 747 mmHg 44%
    08:00 +17°C° 0 mm 4 mps 747 mmHg 48%
    09:00 +17°C° 0 mm 4 mps 747 mmHg 52%
    10:00 +18°C° 0 mm 4 mps 747 mmHg 56%
    11:00 +17°C° 0.3 mm 4 mps 746 mmHg 60%
    12:00 +17°C° 0.3 mm 3 mps 746 mmHg 63%
    13:00 +16°C° 0.3 mm 3 mps 746 mmHg 67%
    14:00 +16°C° 0.3 mm 3 mps 745 mmHg 70%
    15:00 +14°C° 0.3 mm 3 mps 745 mmHg 73%
    16:00 +14°C° 0.3 mm 3 mps 745 mmHg 76%
    17:00 +13°C° 0.1 mm 3 mps 745 mmHg 79%
    18:00 +13°C° 0.1 mm 3 mps 745 mmHg 81%
    19:00 +14°C° 0.1 mm 2 mps 745 mmHg 83%
    20:00 +14°C° 0.1 mm 2 mps 745 mmHg 85%
    21:00 +13°C° 0.1 mm 2 mps 745 mmHg 87%
    22:00 +13°C° 0.1 mm 1 mps 745 mmHg 89%
    23:00 +12°C° 0 mm 1 mps 745 mmHg 90%

    24 September, Tuesday

    Time Temperature Precipitation Wind Pressure Humidity
    00:00 +12°C° 0 mm 1 mps 745 mmHg 90%
    01:00 +12°C° 0 mm 1 mps 745 mmHg 91%
    02:00 +12°C° 0 mm 1 mps 745 mmHg 91%
    03:00 +12°C° 0 mm 1 mps 745 mmHg 91%
    04:00 +11°C° 0 mm 1 mps 745 mmHg 92%
    05:00 +12°C° 0 mm 1 mps 745 mmHg 90%
    06:00 +12°C° 0 mm 2 mps 745 mmHg 88%
    07:00 +13°C° 0 mm 2 mps 745 mmHg 86%
    08:00 +14°C° 0 mm 2 mps 745 mmHg 79%
    09:00 +16°C° 0 mm 2 mps 745 mmHg 71%
    10:00 +18°C° 0 mm 3 mps 745 mmHg 64%
    11:00 +20°C° 0 mm 3 mps 745 mmHg 58%
    12:00 +22°C° 0 mm 3 mps 745 mmHg 52%
    13:00 +24°C° 0 mm 3 mps 745 mmHg 47%
    14:00 +23°C° 0 mm 4 mps 745 mmHg 50%
    15:00 +22°C° 0 mm 4 mps 745 mmHg 54%
    16:00 +21°C° 0 mm 5 mps 745 mmHg 58%
    17:00 +20°C° 0 mm 4 mps 745 mmHg 65%
    18:00 +18°C° 0 mm 3 mps 746 mmHg 72%
    19:00 +17°C° 0 mm 3 mps 746 mmHg 79%
    20:00 +17°C° 0 mm 3 mps 746 mmHg 79%
    21:00 +17°C° 0 mm 2 mps 746 mmHg 80%
    22:00 +16°C° 0 mm 2 mps 746 mmHg 80%
    23:00 +16°C° 0 mm 2 mps 746 mmHg 81%
    Show more